FW0247 Weather Reports


time (UTC)temp
F
wind
direction
speed
knots
gust
knots
rain 1hr
in
rain 24hr
in
rain mn
in
humidity
%
barometer
mb
20260503200033 63 10 2.6 7.0 0.00 0.00 0.00 65 1012.3
20260503194540 62 297 2.6 7.0 0.00 0.00 0.00 66 1012.4
20260503193032 61 320 0.9 4.3 0.00 0.00 0.00 70 1012.4
20260503191530 60 288 1.7 6.1 0.00 0.00 0.00 71 1012.4
20260503190037 60 277 2.6 7.8 0.00 0.00 0.00 72 1012.4
20260503184527 60 294 3.5 7.8 0.00 0.00 0.00 71 1012.4
20260503183024 60 304 1.7 7.0 0.00 0.00 0.00 72 1012.4
20260503181522 59 26 0.9 5.2 0.00 0.00 0.00 74 1012.3
20260503180022 59 308 2.6 9.6 0.00 0.00 0.00 74 1012.3
20260503174520 59 292 0.0 2.6 0.00 0.00 0.00 74 1012.3
20260503173017 58 299 0.9 4.3 0.00 0.00 0.00 77 1012.4
20260503171515 58 141 0.9 3.5 0.00 0.00 0.00 78 1012.3
20260503081536 54 41 0.0 1.7 0.00 0.00 0.00 85 1011.2
20260503071527 54 296 0.9 3.5 0.00 0.00 0.00 85 1011.2
20260503054531 54 55 0.9 4.3 0.00 0.00 0.00 86 1011.7
20260503053035 54 301 0.9 2.6 0.00 0.00 0.00 86 1011.7
20260503051521 54 148 0.9 5.2 0.00 0.00 0.00 86 1011.7
20260503050020 54 325 0.0 5.2 0.00 0.00 0.00 85 1011.6
20260503044520 54 285 0.9 3.5 0.00 0.00 0.00 85 1011.5
20260503043025 54 250 0.9 3.5 0.00 0.00 0.00 84 1011.6
20260503041519 54 302 0.0 5.2 0.00 0.00 0.00 85 1011.4
20260503040031 54 266 0.9 2.6 0.00 0.00 0.00 84 1011.4
20260503034518 54 273 0.9 7.0 0.00 0.00 0.00 84 1011.2
20260503033018 54 322 1.7 5.2 0.00 0.00 0.00 84 1011.0
20260503031517 54 298 1.7 6.1 0.00 0.00 0.00 84 1010.8
20260503030017 55 254 0.9 5.2 0.00 0.00 0.00 84 1010.6
20260503024516 55 290 0.0 4.3 0.00 0.00 0.00 84 1010.7
20260503023016 55 300 1.7 8.7 0.00 0.00 0.00 83 1010.7
20260503021515 55 311 0.9 6.1 0.00 0.00 0.00 82 1010.7
20260503020014 56 111 0.9 3.5 0.00 0.00 0.00 81 1010.7
20260503014514 56 238 1.7 6.1 0.00 0.00 0.00 81 1010.9
20260503013015 56 346 1.7 6.1 0.00 0.00 0.00 80 1010.9
20260503011516 57 319 4.3 15.6 0.00 0.00 0.00 78 1011.0
20260503010010 57 259 0.9 7.0 0.00 0.00 0.00 79 1011.0
20260503004510 57 316 1.7 10.4 0.00 0.00 0.00 78 1011.1
20260503003009 58 299 2.6 6.1 0.00 0.00 0.00 77 1011.0
20260503001509 58 298 2.6 13.9 0.00 0.00 0.00 76 1011.0
20260503000009 60 308 2.6 9.6 0.00 0.00 0.00 73 1011.0
20260502234517 60 294 4.3 10.4 0.00 0.00 0.00 72 1011.1
20260502233007 62 267 1.7 8.7 0.00 0.00 0.00 72 1011.0
20260502231505 63 266 1.7 7.8 0.00 0.00 0.00 70 1011.1
20260502230004 63 1 0.9 10.4 0.00 0.00 0.00 70 1011.3
20260502224504 62 230 2.6 6.1 0.00 0.00 0.00 71 1011.5
20260502223003 62 257 0.9 8.7 0.00 0.00 0.00 74 1011.8
20260502221502 63 311 3.5 11.3 0.00 0.00 0.00 70 1011.9
20260502220002 63 293 3.5 9.6 0.00 0.00 0.00 71 1012.1
20260502214504 62 295 0.9 10.4 0.00 0.00 0.00 74 1012.0
20260502213002 62 328 2.6 10.4 0.00 0.00 0.00 74 1012.1
20260502211600 62 6 2.6 9.6 0.00 0.00 0.00 75 1012.2
20260502210100 62 283 2.6 8.7 0.00 0.00 0.00 76 1012.4
20260502210002 62 33 2.6 8.7 0.00 0.00 0.00 75 1012.4
20260502204618 62 205 1.7 7.8 0.00 0.00 0.00 74 1012.4
20260502203059 62 205 1.7 8.7 0.00 0.00 0.00 76 1012.6
20260502201558 62 321 0.9 11.3 0.00 0.00 0.00 78 1012.6